Аэропорт
Хомутово (UHSS)

 UHSS / UUS
ЗЦ Хабаровск
Хабаровск (UHHH)
Хабаровск (UHHH)
 46.88870, 142.71800  / 59 ft

 UHSS 191130Z 17003MPS 9999 SCT026 12/10 Q1008 R19/CLRD70 NOSIG RMK MT OBSC QFE755/1006

uhss_aip_1605
показать схемы
Название сценария Тип сценария Flight Simulator 9 Flight Simulator X Prepar3D v2 Prepar3D v3 Prepar3D v4 xPlane
FSX-UHSS-2015 бесплатный
P3D-UHSS-2015 бесплатный
UHSS-FS9 бесплатный
UHSS_XPL бесплатный


2019 © VATRUS division (Privacy Policy)